Regional Weather Roundup
Issued by NWS

Home | Current Version | Previous Version | Text Only | Print | Product List | Glossary On
Versions: 1 2 3 4 5 6 7 8 9 10 11 12 13 14 15 16 17 18 19 20 21 22 23 24 25 26 27 28 29 30 31 32 33 34 35 36 37 38 39 40 41 42 43 44 45 46 47 48 49 50
000
ASUS43 KMPX 220210
RWRMN
WEATHER ROUNDUP FOR MINNESOTA
NATIONAL WEATHER SERVICE TWIN CITIES/CHANHASSEN MN
900 PM CDT SAT OCT 21 2017


NOTE: "FAIR" INDICATES FEW OR NO CLOUDS BELOW 12,000 FEET WITH NO
SIGNIFICANT WEATHER AND/OR OBSTRUCTIONS TO VISIBILITY. N/A MEANS
CURRENT SKY AND/OR WEATHER CONDITIONS ARE NOT AVAILABLE.

MNZ060>063-068>070-220300-
   Twin Cities Metro

CITY           SKY/WX    TMP DP  RH WIND       PRES   REMARKS
TWIN CITIES    CLOUDY    57  52  83 W12       29.75R
ST PAUL        CLOUDY    57  51  80 W12       29.74F
CRYSTAL        LGT RAIN  55  49  80 W7        29.74R
BLAINE         DRIZZLE   57  54  88 W8        29.74R
LAKEVILLE      CLOUDY    55  52  88 W5        29.75S
EDEN PRAIRIE   LGT RAIN  55  52  89 W5        29.74S
SOUTH ST PAUL  CLOUDY    58  51  77 W9G17     29.73F
LAKE ELMO      MOCLDY    55  52  88 W10G17    29.74S
$$
MNZ001>005-007-008-013>017-022>024-027-028-220300-
   Northwest Minnesota

CITY           SKY/WX    TMP DP  RH WIND       PRES   REMARKS
BEMIDJI        CLEAR     49  46  87 SW10      29.65R
HALLOCK        CLOUDY    54  43  66 W21       29.58R
ROSEAU         PTCLDY    54  45  71 SW9       29.56R
WARROAD        MOCLDY    54  45  71 SW9       29.56R
THIEF RVR FALL CLOUDY    52  42  69 W18       29.63R
CROOKSTON      CLOUDY    54  43  66 W14       29.65R
FOSSTON        MOCLDY    46  41  81 SW12G17   29.67R
DETROIT LAKES  MOCLDY    50  43  76 W13G20    29.73R
MOORHEAD       CLOUDY    52  43  71 SW12      29.72R
PARK RAPIDS    PTCLDY    48  44  86 SW10      29.69R
MAHNOMEN       CLOUDY    49  43  79 W17       29.69R
$$
MNZ006-009>011-018-025>026-220300-
   North Central Minnesota

CITY           SKY/WX    TMP DP  RH WIND       PRES   REMARKS
BAUDETTE       CLOUDY    54  50  86 S8        29.55R
FLAG ISLAND    CLOUDY    55  45  67 SW10      29.50R
INTL FALLS     LGT RAIN  57  55  93 W13       29.56R FOG
WASKISH        CLOUDY    54  50  87 SW13G18   29.61R
BIG FORK       CLOUDY    54  52  94 SW6       29.62R
LONGVILLE      CLOUDY    52  50  93 SW6       29.66R
GRAND RAPIDS   LGT RAIN  53  50  89 W6        29.66S
CRANE LAKE     CLOUDY    61  59  94 S5        29.61F
ORR            CLOUDY    61  57  88 SW3G17    29.59R
COOK           LGT RAIN  63  61  94 S8        29.62S
WALKER         FAIR      49  47  92 SW9       29.66R
$$
MNZ012-019>021-037-220300-
   Northeast Minnesota

CITY           SKY/WX    TMP DP  RH WIND       PRES   REMARKS
DULUTH         CLOUDY    62  60  93 S14G22    29.67S
ELY            CLOUDY    61  61 100 S12       29.65F
HIBBING        CLOUDY    61  60  97 VRB6      29.63S
EVELETH        CLOUDY    63  62  97 S13       29.65S
DULUTH HARBOR  CLOUDY    64  61  88 S15       29.66S
TWO HARBORS    CLOUDY    66  61  82 S3        29.66S
SILVER BAY     CLOUDY    63  59  88 S5        29.68R
GRAND MARAIS     N/A     54  53  97 NE5       29.71F
G MARAIS ARPRT CLOUDY    55  54  94 S7        29.73F
$$
MNZ029>031-032-039>041-046>048-054>057-064-220300-
   West Central Minnesota

CITY           SKY/WX    TMP DP  RH WIND       PRES   REMARKS
FERGUS FALLS   CLOUDY    50  43  76 W10G17    29.76R
WHEATON        CLOUDY    52  41  66 W16       29.79F
MORRIS         PTCLDY    48  43  81 W12       29.78R
ALEXANDRIA     CLEAR     50  42  74 W14G23    29.77R
ELBOW LAKE     CLOUDY    49  43  78 SW12G20   29.77S
WADENA         CLEAR     48  43  81 W14G21    29.72R
GLENWOOD       CLEAR     48  43  81 W13       29.77S
APPLETON       CLEAR     50  43  76 W10       29.78F
BENSON         CLEAR     48  43  81 W10       29.80S
ORTONVILLE     CLOUDY    52  41  66 W9        29.80S
MADISON        PTCLDY    54  43  66 W14       29.80F
WILLMAR        FAIR      52  45  76 CALM      29.80S
$$
MNZ033>034-036-042>043-049>051-058-059-220300-
   Central Minnesota

CITY           SKY/WX    TMP DP  RH WIND       PRES   REMARKS
ST CLOUD       CLOUDY    54  50  86 SW8       29.74R
SAUK CENTRE    FAIR      50  43  77 W18G26    29.76R
PAYNESVILLE    PTCLDY    51  45  79 W17G26    29.77R
AITKIN         DRIZZLE   50  48  93 SW6       29.67R
PINE RIVER     CLOUDY    48  46  93 SW5       29.72R
BRAINERD       CLOUDY   N/A N/A N/A SW9       29.69S
STAPLES        CLEAR     48  43  81 W8        29.72R
LONG PRAIRIE   FAIR      50  43  76 SW13G18   29.76R
LITTLE FALLS   CLOUDY    52  43  71 W10       29.74R
LITCHFIELD     CLOUDY    54  46  76 W13G20    29.77S
BUFFALO        CLOUDY    54  49  85 CALM      29.75F
MAPLE LAKE     CLOUDY    55  52  89 W9        29.75S
HUTCHINSON     CLOUDY    53  47  82 W9        29.78S
$$
MNZ037-044-045-052-053-220300-
   East Central Minnesota

CITY           SKY/WX    TMP DP  RH WIND       PRES   REMARKS
PRINCETON      CLOUDY    55  52  88 SW3       29.72S
MORA           MOCLDY    54  50  87 W5        29.73R
CAMBRIDGE      LGT RAIN  55  55 100 SW5       29.73S
RUSH CITY      CLOUDY    54  51  89 W8        29.72R
MOOSE LAKE     LGT RAIN  63  59  88 SW13G22   29.65R
HINCKLEY       LGT RAIN  59  55  88 W14G23    29.69R
CLOQUET        CLOUDY    64  57  77 S7G17     29.66S
MCGREGOR       CLOUDY    54  52  94 W3        29.68R
$$
MNZ071>073-080-081-089-090-097-098-220300-
   Southwest Minnesota

CITY           SKY/WX    TMP DP  RH WIND       PRES   REMARKS
MONTEVIDEO     PTCLDY    50  43  76 NW9G17    29.80F
GRANITE FALLS  PTCLDY    51  44  77 W12       29.82F
CANBY          PTCLDY    50  41  70 SW14      29.83F
MARSHALL       CLEAR     50  41  71 W12       29.83F
REDWOOD FALLS  CLOUDY    51  42  71 W14       29.80R
OLIVIA         CLOUDY    50  43  76 W16G22    29.79S
PIPESTONE      CLEAR     45  37  76 W8        29.85F
WORTHINGTON    CLEAR     48  39  71 W15       29.86S
JACKSON        PTCLDY    50  41  71 W17G24    29.84R
TRACY          CLEAR     50  43  75 W6        29.83F
SLAYTON        CLEAR     48  40  73 W13       29.85S
$$
MNZ065>067-074>077-082>085-091>093-220300-
   South Central Minnesota

CITY           SKY/WX    TMP DP  RH WIND       PRES   REMARKS
MANKATO        CLOUDY    54  49  83 W8        29.79S
NEW ULM          N/A     52  43  71 W13       29.80R
ST JAMES       CLOUDY    52  45  76 W14       29.82R
FAIRMONT       CLOUDY    53  44  71 W14       29.84R
GLENCOE        CLOUDY    55  49  81 W6        29.77S
FARIBAULT      CLOUDY    55  52  88 W7        29.78R
OWATONNA       CLOUDY    55  52  88 W10       29.78S
WASECA         CLOUDY    54  50  87 W5        29.79R
$$
MNZ078>079-086>088-094>096-220300-
   Southeast Minnesota

CITY           SKY/WX    TMP DP  RH WIND       PRES   REMARKS
ROCHESTER      LGT RAIN  61  58  90 S15       29.78S
RED WING       CLOUDY    59  54  82 NW8       29.70S
STANTON        LGT RAIN  56  51  83 W6        29.76R
DODGE CENTER   CLOUDY    55  54  94 W8        29.78R
WINONA         CLOUDY    70  61  73 S3        29.74F
AUSTIN         CLOUDY    55  54  94 NW6       29.80R
PRESTON        TSTM      63  60  90 S20G26    29.80R
$$
ABBREVIATIONS USED IN REMARKS
   TC - TEMPERATURES IN CELSIUS
  WCI - WIND CHILL INDEX
   HX - HEAT INDEX
  VSB - VISIBILITY
$$




USA.gov is the U.S. government's official web portal to all federal, state and local government web resources and services.